This is the latest recevied weather packets stored in our database for station/object K4QXN-13. If no packets are shown the sender has not sent any weather packets the latest 10 day(s).
| Time | Temp. | Humidity | Pressure | Rain* | Wind** | Luminosity | Snow |
|---|---|---|---|---|---|---|---|
| 1787762955 | 30.56° C | 66% | 1017.9 hPa | 0 mm | - | - | - |
| 1787762653 | 31.11° C | 66% | 1018.2 hPa | 0 mm | - | - | - |
| 1787762352 | 31.11° C | 68% | 1017.9 hPa | 0 mm | - | - | - |
| 1787762050 | 30° C | 71% | 1018.2 hPa | 0 mm | - | - | - |
| 1787761748 | 30.56° C | 69% | 1018.2 hPa | 0 mm | - | - | - |
| 1787761447 | 30.56° C | 69% | 1018.2 hPa | 0 mm | - | - | - |
| 1787761145 | 31.11° C | 70% | 1018.2 hPa | 0 mm | - | - | - |
| 1787760843 | 30.56° C | 72% | 1018.2 hPa | 0 mm | - | - | - |
| 1787760541 | 28.89° C | 74% | 1018.6 hPa | 0 mm | - | - | - |
| 1787760239 | 29.44° C | 72% | 1018.6 hPa | 0 mm | - | - | - |
| 1787759938 | 30° C | 71% | 1018.9 hPa | 0 mm | - | - | - |
| 1787759636 | 29.44° C | 73% | 1018.9 hPa | 0 mm | - | - | - |
| 1787759334 | 30° C | 72% | 1018.9 hPa | 0 mm | - | - | - |
| 1787759033 | 29.44° C | 73% | 1018.9 hPa | 0 mm | - | - | - |
| 1787758731 | 28.89° C | 73% | 1018.9 hPa | 0 mm | - | - | - |
| 1787758430 | 30° C | 78% | 1018.9 hPa | 0 mm | - | - | - |
| 1787758128 | 28.89° C | 78% | 1018.9 hPa | 0 mm | - | - | - |
| 1787757826 | 28.33° C | 77% | 1018.9 hPa | 0 mm | - | - | - |
| 1787757524 | 28.89° C | 77% | 1018.9 hPa | 0 mm | - | - | - |
| 1787757223 | 27.78° C | 78% | 1018.9 hPa | 0 mm | - | - | - |
| 1787756921 | 28.33° C | 78% | 1018.9 hPa | 0 mm | - | - | - |
| 1787756620 | 28.89° C | 77% | 1018.9 hPa | 0 mm | - | - | - |
| 1787756318 | 27.78° C | 80% | 1018.9 hPa | 0 mm | - | - | - |
| 1787756017 | 26.67° C | 82% | 1018.9 hPa | 0 mm | - | - | - |
| 1787755715 | 27.22° C | 81% | 1018.9 hPa | 0 mm | - | - | - |
* Rain latest hour (hover to see other rain measurements)
** Current wind speed in m/s (hover to see current wind gust speed)